[[{"header":{"parameterUnit":"m.s-1","parameterCategory":1,"la1":30.2991,"la2":30.254,"lo1":-89.0895,"lo2":-89.0444,"dy":0.0017,"dx":0.0017,"nx":28,"ny":28,"refTime":"2025-03-10T09:00:00:Z","depth":0,"parameterNumber":2,"parameterNumberName":"U-component_of_WINDS"},"data":[0,0,0,0,0,0,0,0,0,0,0,0,0,0,0,0,0,0,0,0,0,0,0,0,0,0,0,0,0,0,0,0,0,0,0,0,0,0,0,0,0,0,0,0,0,0,0,0,0,0,0,0,0,0,0,0,0,0,4.1366,4.1368,0,4.155,4.1553,4.1555,4.1566,4.1564,4.1562,4.156,4.175,4.1757,4.1764,0,0,0,0,0,0,0,0,0,0,0,0,0,4.1029,4.1035,4.1366,4.1369,4.1371,4.155,4.1553,4.1555,4.1566,4.1564,4.1561,4.1559,4.1748,4.1756,4.1764,0,0,0,0,0,0,0,0,0,0,0,0,0,4.119,4.1037,4.1366,4.1398,4.1403,4.155,4.1553,4.1556,4.1567,4.1564,4.1561,4.1558,4.1745,4.1755,4.1766,4.1893,0,0,4.1798,4.1802,0,0,0,0,0,0,0,0,4.1181,4.1203,4.1391,4.1396,4.1402,4.1532,4.1503,4.1669,4.1568,4.1505,4.156,4.1556,4.168,4.1696,4.1737,4.1902,4.191,4.1799,4.1805,4.181,4.1812,0,0,0,0,0,0,0,4.117,4.1195,4.1439,4.1394,4.14,4.1405,4.1424,4.1535,4.1608,4.151,4.1511,4.1533,4.1682,4.1727,4.1742,4.1913,4.1798,4.1808,4.1814,4.1818,4.2197,4.22,0,0,0,0,0,0,4.1152,4.1185,4.1433,4.1445,4.1281,4.1413,4.1435,4.1493,4.1607,4.1621,4.1535,4.1533,4.1711,4.173,4.1749,4.1908,4.1809,4.1819,4.1825,4.2193,4.2198,4.2202,0,0,0,0,0,0,4.1145,4.1174,4.1426,4.1316,4.1348,4.1422,4.1488,4.1499,4.1543,4.1626,4.1639,4.1567,4.1709,4.1734,4.1858,4.1915,4.1824,4.1834,4.2189,4.2195,4.22,4.2227,0,0,0,0,0,0,4.1135,4.1171,4.1219,4.1317,4.1354,4.1531,4.1491,4.1505,4.1561,4.1559,4.1659,4.1673,4.1708,4.1842,4.1869,4.1928,4.1842,4.2184,4.2191,4.2198,4.2221,4.2233,4.2243,0,0,0,0,0,4.1123,4.1219,4.1222,4.1251,4.1415,4.1534,4.1556,4.1594,4.1566,4.1616,4.1669,4.167,4.1904,4.1855,4.1885,4.1948,4.2181,4.2189,4.2197,4.2216,4.2231,4.2242,0,0,0,0,0,0,4.1126,4.1232,4.1236,4.1366,4.1441,4.1536,4.1599,4.1607,4.1692,4.1687,4.1732,4.1754,4.1878,4.1925,4.1868,4.208,4.204,4.2054,4.2044,4.2058,4.2068,4.2055,4.1851,0,0,0,0,0,4.1142,4.1229,4.1317,4.1424,4.1461,4.1524,4.1577,4.1601,4.168,4.1712,4.1775,4.1853,4.1945,4.2004,4.2092,4.2228,4.2252,4.2287,4.2298,4.2306,4.2318,4.2398,4.2415,4.2229,4.2229,4.2229,0,0,4.1175,4.1244,4.1296,4.1426,4.1487,4.1578,4.155,4.1646,4.1715,4.1727,4.1849,4.1898,4.1988,4.212,4.2181,4.2163,4.2375,4.2317,4.2323,4.2331,4.2408,4.2426,4.2441,4.2235,4.2234,4.2233,0,0,4.1283,4.1343,4.144,4.1502,4.1595,4.1637,4.166,4.1755,4.1788,4.1911,4.1923,4.2006,4.2162,4.2227,4.228,4.2417,4.2422,4.2445,4.2501,4.2577,4.2592,4.2605,4.2657,4.2674,4.2457,4.2457,4.2457,0,4.1313,4.1449,4.1488,4.1586,4.1644,4.166,4.176,4.1818,4.1936,4.1976,4.1955,4.2154,4.2215,4.2364,4.2398,4.244,4.247,4.2434,4.2587,4.26,4.2613,4.2663,4.2682,4.2459,4.2459,4.2459,4.2459,0,4.1483,4.1577,4.1645,4.1758,4.1824,4.1922,4.1979,4.2041,4.206,4.2105,4.2232,4.2307,4.2413,4.245,4.2469,4.2603,4.259,4.2577,4.2538,4.2633,4.268,4.2699,4.2463,4.2462,4.2461,4.2461,0,0,4.1595,4.1732,4.1756,4.181,4.1915,4.199,4.209,4.2194,4.2248,4.2329,4.2416,4.255,4.254,4.2601,4.2628,4.2695,4.2803,4.2675,4.2678,4.2697,4.2959,4.2968,4.299,4.2806,4.281,4.2813,4.2952,0,4.1716,4.1894,4.1934,4.2088,4.2178,4.2196,4.2284,4.236,4.2405,4.249,4.254,4.2636,4.2614,4.2651,4.2718,4.2775,4.2856,4.2765,4.289,4.2894,4.2867,4.3014,4.3024,4.3151,4.297,4.2974,4.2976,0,4.188,4.1966,4.2129,4.2226,4.2266,4.2344,4.2444,4.2524,4.2611,4.264,4.271,4.2731,4.2839,4.2794,4.2945,4.2883,4.2937,4.2973,4.2979,4.2992,4.2941,4.3033,4.3192,4.3212,4.3005,4.3003,4.3001,0,4.1949,4.2105,4.2224,4.2269,4.2385,4.244,4.2491,4.2575,4.2636,4.2725,4.2765,4.2865,4.292,4.2998,4.3046,4.3009,4.3195,4.3153,4.3224,4.3223,4.3262,4.3259,4.3433,4.3294,4.3294,4.3294,4.3293,0,4.208,4.2179,4.2257,4.233,4.2443,4.249,4.2601,4.2653,4.2728,4.2813,4.2835,4.2915,4.2974,4.3062,4.3101,4.3222,4.3246,4.3274,4.3284,4.3273,4.327,4.3309,4.3302,4.3299,4.3298,4.3297,4.3296,0,4.2175,4.2231,4.2362,4.2462,4.2489,4.2569,4.2655,4.2728,4.2775,4.2883,4.2911,4.2986,4.3092,4.3148,4.328,4.3306,4.3443,4.3446,4.3413,4.3417,4.3485,4.3478,4.3691,4.3723,4.3562,4.3563,4.3564,0,4.2255,4.2333,4.2442,4.25,4.2553,4.2646,4.271,4.276,4.2825,4.2933,4.2994,4.3101,4.3189,4.3358,4.3425,4.3527,4.3535,4.3603,4.355,4.3538,4.3538,4.3534,4.3543,4.3612,4.3613,4.3614,4.3615,0,4.2393,4.2418,4.2508,4.2609,4.2684,4.2765,4.2846,4.2893,4.2958,4.303,4.3139,4.3208,4.3344,4.3451,4.356,4.3614,4.3627,4.3632,4.3654,4.3644,4.3622,4.3637,4.344,4.3626,4.3625,4.3624,4.3624,4.3623,4.2485,4.2556,4.2645,4.2745,4.2812,4.2888,4.2962,4.302,4.3111,4.3226,4.3251,4.3367,4.3456,4.3603,4.3661,4.3754,4.374,4.3771,4.378,4.3787,4.3791,4.3607,4.3773,4.3773,4.3773,4.3773,4.3772,0,4.2626,4.2684,4.2776,4.289,4.297,4.2975,4.3066,4.3133,4.3234,4.3316,4.3404,4.3531,4.3636,4.3712,4.382,4.388,4.3889,4.3907,4.3904,4.3917,4.3796,4.3767,4.3898,4.3898,4.3898,4.3898,4.3898,4.3898,4.2708,4.283,4.2865,4.3021,4.308,4.3193,4.3245,4.3317,4.3383,4.3524,4.3611,4.366,4.3742,4.3856,4.3954,4.3974,4.4014,4.4032,4.4053,4.3938,4.3925,4.3912,4.3885,4.4039,4.404,4.4166,4.4167,4.4168]},{"header":{"parameterUnit":"m.s-1","parameterCategory":1,"la1":30.2991,"la2":30.254,"lo1":-89.0895,"lo2":-89.0444,"dy":0.0017,"dx":0.0017,"nx":28,"ny":28,"refTime":"2025-03-10T09:00:00:Z","depth":0,"parameterNumber":3,"parameterNumberName":"V-component_of_WINDS"},"data":[0,0,0,0,0,0,0,0,0,0,0,0,0,0,0,0,0,0,0,0,0,0,0,0,0,0,0,0,0,0,0,0,0,0,0,0,0,0,0,0,0,0,0,0,0,0,0,0,0,0,0,0,0,0,0,0,0,0,-5.5596,-5.5597,0,-5.5662,-5.5662,-5.5663,-5.5642,-5.5641,-5.564,-5.5638,-5.57,-5.5703,-5.5706,0,0,0,0,0,0,0,0,0,0,0,0,0,-5.5452,-5.5454,-5.5596,-5.5597,-5.5598,-5.5661,-5.5662,-5.5663,-5.5643,-5.5641,-5.5639,-5.5638,-5.5699,-5.5702,-5.5706,0,0,0,0,0,0,0,0,0,0,0,0,0,-5.5515,-5.5455,-5.5596,-5.5595,-5.5596,-5.5661,-5.5662,-5.5663,-5.5643,-5.5641,-5.5639,-5.5637,-5.5698,-5.5702,-5.5706,-5.5775,0,0,-5.572,-5.5722,0,0,0,0,0,0,0,0,-5.5512,-5.5521,-5.5595,-5.5596,-5.5596,-5.5642,-5.5634,-5.5701,-5.5643,-5.5625,-5.5638,-5.5636,-5.5682,-5.5687,-5.5704,-5.5777,-5.578,-5.572,-5.5723,-5.5725,-5.5726,0,0,0,0,0,0,0,-5.5507,-5.5518,-5.5622,-5.5596,-5.5597,-5.5591,-5.5598,-5.5646,-5.5664,-5.5626,-5.5625,-5.5633,-5.5682,-5.57,-5.5705,-5.5781,-5.572,-5.5724,-5.5727,-5.5728,-5.5917,-5.5919,0,0,0,0,0,0,-5.5503,-5.5514,-5.562,-5.5624,-5.5548,-5.5595,-5.5603,-5.5629,-5.5663,-5.5667,-5.5635,-5.5632,-5.5693,-5.57,-5.5707,-5.5792,-5.5725,-5.5729,-5.5731,-5.5915,-5.5918,-5.592,0,0,0,0,0,0,-5.55,-5.5513,-5.5617,-5.5569,-5.5582,-5.56,-5.563,-5.5632,-5.565,-5.567,-5.5673,-5.565,-5.5692,-5.5701,-5.5759,-5.5793,-5.5731,-5.5735,-5.5912,-5.5916,-5.5919,-5.5959,0,0,0,0,0,0,-5.5496,-5.5512,-5.5538,-5.557,-5.5584,-5.5669,-5.5632,-5.5634,-5.5658,-5.5655,-5.5685,-5.5688,-5.5691,-5.5753,-5.5764,-5.5798,-5.5738,-5.5909,-5.5914,-5.5918,-5.5955,-5.5964,-5.5971,0,0,0,0,0,-5.5491,-5.5545,-5.5539,-5.5552,-5.5618,-5.5671,-5.5679,-5.5683,-5.5661,-5.5687,-5.5701,-5.5687,-5.5788,-5.5759,-5.5771,-5.5807,-5.5907,-5.5912,-5.5917,-5.5951,-5.5962,-5.5971,0,0,0,0,0,0,-5.5513,-5.5549,-5.5543,-5.5609,-5.5638,-5.5667,-5.57,-5.5694,-5.5727,-5.5722,-5.5724,-5.5732,-5.5792,-5.5805,-5.5772,-5.5877,-5.5844,-5.5852,-5.5866,-5.5876,-5.5884,-5.5879,-5.5742,0,0,0,0,0,-5.5527,-5.5568,-5.5596,-5.5651,-5.5666,-5.5681,-5.5704,-5.5705,-5.5734,-5.5745,-5.5763,-5.579,-5.5828,-5.5853,-5.5889,-5.5957,-5.5964,-5.5988,-5.5997,-5.6003,-5.601,-5.605,-5.6061,-5.5938,-5.5938,-5.5938,0,0,-5.5553,-5.5578,-5.5603,-5.5657,-5.5679,-5.5721,-5.5691,-5.5736,-5.5767,-5.5751,-5.5808,-5.5822,-5.5853,-5.5917,-5.5946,-5.593,-5.6046,-5.601,-5.6015,-5.6018,-5.6056,-5.6068,-5.6078,-5.5941,-5.5941,-5.594,0,0,-5.5623,-5.5646,-5.5696,-5.572,-5.5755,-5.5765,-5.5778,-5.581,-5.5819,-5.5877,-5.5867,-5.5904,-5.5969,-5.5992,-5.6012,-5.6096,-5.6085,-5.6108,-5.615,-5.6189,-5.6199,-5.6207,-5.6238,-5.6249,-5.6115,-5.6115,-5.6115,0,-5.5651,-5.5716,-5.5722,-5.577,-5.5794,-5.5785,-5.5836,-5.5858,-5.5902,-5.5919,-5.5902,-5.5986,-5.6005,-5.6076,-5.6098,-5.6114,-5.6128,-5.6104,-5.6197,-5.6206,-5.6214,-5.6244,-5.6255,-5.6117,-5.6117,-5.6117,-5.6116,0,-5.5749,-5.5794,-5.5831,-5.5877,-5.5906,-5.5955,-5.5968,-5.5997,-5.5996,-5.6009,-5.6069,-5.6093,-5.6135,-5.6152,-5.615,-5.6224,-5.6213,-5.6196,-5.6163,-5.6228,-5.6256,-5.6268,-5.6121,-5.612,-5.6119,-5.6119,0,0,-5.5832,-5.5886,-5.5899,-5.5921,-5.5961,-5.5996,-5.6045,-5.6089,-5.6114,-5.6145,-5.6187,-5.6245,-5.6231,-5.6254,-5.6255,-5.6289,-5.6357,-5.6269,-5.6269,-5.6285,-5.6441,-5.6453,-5.6466,-5.6351,-5.6353,-5.6354,-5.6439,0,-5.5907,-5.5996,-5.6005,-5.6084,-5.6126,-5.612,-5.6164,-5.6193,-5.6207,-5.6244,-5.6259,-5.63,-5.6278,-5.6292,-5.6326,-5.6342,-5.6388,-5.6336,-5.6389,-5.6391,-5.6382,-5.6481,-5.6494,-5.6572,-5.6449,-5.6451,-5.6453,0,-5.6004,-5.6043,-5.6127,-5.6165,-5.6183,-5.6222,-5.6265,-5.6301,-5.6335,-5.6342,-5.6371,-5.6369,-5.642,-5.6387,-5.6457,-5.6422,-5.6444,-5.6456,-5.6459,-5.6463,-5.6425,-5.6489,-5.6596,-5.6608,-5.647,-5.6468,-5.6467,0,-5.6059,-5.6131,-5.6192,-5.6211,-5.6256,-5.6284,-5.6303,-5.6335,-5.6362,-5.6399,-5.6417,-5.6459,-5.6481,-5.6514,-5.6523,-5.6498,-5.6595,-5.6561,-5.6602,-5.6602,-5.6622,-5.6621,-5.6735,-5.6637,-5.6637,-5.6636,-5.6636,0,-5.6141,-5.6192,-5.6217,-5.6254,-5.6313,-5.6324,-5.6381,-5.6399,-5.6428,-5.6469,-5.6466,-5.6503,-5.6514,-5.6554,-5.6562,-5.662,-5.663,-5.6638,-5.6639,-5.6638,-5.6637,-5.6653,-5.6647,-5.6639,-5.6639,-5.6638,-5.6638,0,-5.621,-5.6228,-5.6294,-5.6333,-5.6345,-5.6386,-5.6419,-5.6455,-5.647,-5.6522,-5.6534,-5.6557,-5.6604,-5.6618,-5.6673,-5.6679,-5.6748,-5.6744,-5.6737,-5.6737,-5.6778,-5.6774,-5.6906,-5.6925,-5.6814,-5.6815,-5.6816,0,-5.6261,-5.6301,-5.6346,-5.6375,-5.6397,-5.6441,-5.647,-5.6483,-5.6513,-5.6557,-5.6588,-5.6635,-5.6674,-5.6749,-5.677,-5.6813,-5.6811,-5.6854,-5.6817,-5.6816,-5.6812,-5.681,-5.6815,-5.6861,-5.6862,-5.6863,-5.6864,0,-5.635,-5.6358,-5.6401,-5.6448,-5.6484,-5.652,-5.6556,-5.6579,-5.6597,-5.663,-5.668,-5.6711,-5.677,-5.6817,-5.6862,-5.6881,-5.6876,-5.6876,-5.6888,-5.6887,-5.6882,-5.6887,-5.6757,-5.6872,-5.6871,-5.6871,-5.687,-5.687,-5.6412,-5.6449,-5.6488,-5.6536,-5.6565,-5.66,-5.6637,-5.6658,-5.67,-5.6751,-5.6756,-5.681,-5.6845,-5.6906,-5.6928,-5.697,-5.6957,-5.6974,-5.6979,-5.6983,-5.6987,-5.6876,-5.6978,-5.6978,-5.6978,-5.6978,-5.6977,0,-5.6502,-5.6528,-5.6573,-5.6625,-5.6663,-5.6658,-5.6698,-5.673,-5.6779,-5.6813,-5.6853,-5.6911,-5.6958,-5.6984,-5.7031,-5.706,-5.7059,-5.7072,-5.707,-5.7075,-5.6995,-5.698,-5.7072,-5.7072,-5.7072,-5.7072,-5.7072,-5.7072,-5.6554,-5.6617,-5.6631,-5.6709,-5.6733,-5.6789,-5.6812,-5.6844,-5.6872,-5.6939,-5.6979,-5.6997,-5.7028,-5.7078,-5.7121,-5.7128,-5.7145,-5.716,-5.7165,-5.709,-5.708,-5.7071,-5.7057,-5.7164,-5.7164,-5.7241,-5.7242,-5.7243]}]]